Flag for Brazil Weather past 2 weeks in Porto Alegre, Rio Grande do Sul, Brazil

Now
59 °F

Fog.


Feels Like: 57 °F
Forecast: 48 / 65 °F
Wind: 9 mph from West

Location: Porto Alegre Aero-Porto

Current Time: Jul 24, 2014 at 7:51:05 AM

Latest Report: Jul 24, 2014 at 7:00 AM


Visibility: 3 mi

Pressure: 29.86 "Hg

Humidity: 94%

Dew point: 57 °F

Location of Porto AlegreLocation

Historic Weather in Porto Alegre — Graph

°F

Porto Alegre temperature yesterday

Maximum temperature yesterday: 66 °F (at 4:00 PM)
Minimum temperature yesterday: 46 °F (at 7:00 AM)
Average temperature yesterday: 63 °F

Past Weeks' High & Low Weather Summary

 TemperatureHumidityPressure
High81 °F (Jul 22, 2:00 PM)100% (Jul 13, 5:00 AM)30.33 "Hg (Jul 13, 5:00 AM)
Low39 °F (Jul 18, 7:00 AM)32% (Jul 22, 2:00 PM)29.65 "Hg (Jul 23, 7:00 PM)
Average62 °F82%30.14 "Hg
* Reported Jul 9 7:00 AM — Jul 24 6:00 AM, Porto Alegre, Weather by CustomWeather, © 2014

Note: Actual official high and low records may vary slightly from our data, if they occured in-between our weather recording intervals... More about our weather records

Advertising

Porto Alegre weather history for previous 24 hours

 ConditionsComfort  
Time TempWeatherWind HumidityBarometerVisibility
6:00 AM
Jul 24
59 °FFog.13 mph94%29.83 "Hg3 mi
5:00 AM59 °FFog.9 mph100%29.77 "Hg3 mi
4:00 AM61 °FLight rain. Fog.18 mph94%29.77 "Hg3 mi
3:00 AM64 °FFog.7 mph94%29.71 "Hg3 mi
2:00 AM64 °FLight rain. Fog.7 mph94%29.71 "Hg3 mi
1:00 AM64 °FThunderstorms. Fog.5 mph94%29.74 "Hg3 mi
12:00 AM63 °FThunderstorms. Fog.6 mph100%29.74 "Hg2 mi
11:00 PM
Jul 23
63 °FThunderstorms. Fog.5 mph100%29.77 "Hg2 mi
10:00 PM63 °FThunderstorms. Fog.7 mph100%29.74 "Hg2 mi
9:00 PM63 °FThunderstorms. Fog.6 mph100%29.74 "Hg2 mi
8:00 PM63 °FThunderstorms. Fog.14 mph100%29.74 "Hg1 mi
7:00 PM64 °FThunderstorms. Fog.8 mph94%29.65 "Hg2 mi
6:00 PM64 °FThunderstorms. Mostly cloudy.10 mph94%N/A2 mi
5:00 PM64 °FLight rain. Overcast.7 mph32%N/A4 mi
4:00 PM66 °FLight rain. Mostly cloudy.9 mph88%29.71 "Hg6 mi
3:00 PM64 °FLight rain. Fog.14 mph94%N/A3 mi
2:00 PM63 °FLight rain. Cloudy.8 mph100%29.80 "Hg2 mi
1:00 PM63 °FLight rain. Fog.12 mph100%N/A2 mi
12:00 PM63 °FLight rain. Fog.10 mph100%N/A2 mi
11:00 AM63 °FRain. Fog.8 mph100%29.95 "Hg2 mi
10:00 AM63 °FRain. Fog.13 mph100%29.95 "Hg2 mi
9:00 AM63 °FLight rain. Fog.10 mph94%29.95 "Hg2 mi
8:00 AM64 °FThunderstorms. Fog.12 mph88%29.92 "Hg2 mi
7:00 AM46 °FThunderstorms. Mostly cloudy.16 mph100%29.89 "Hg2 mi
Weather by CustomWeather, © 2014

See weather overviewHow to use our weather pages